Location: Saluda
(35.2377°N, 82.3468°W)
Time: 05:10:13
(UTC+00:00)

Vanguard 2 Rocket - Pass Details

Date: 07 October 2022
Orbit: 555 x 3321 km, 32.9° (Epoch: 04 December)

Event Time Altitude Azimuth Distance (km) Brightness Sun altitude
Rises 22:36:04 0° 193° (SSW) 6,994 11.7 5.0°
Reaches altitude 10° 22:42:44 10° 178° (S) 6,194 11.3 3.6°
Maximum altitude 22:55:26 21° 139° (SE) 5,332 10.5 1.1°
Drops below altitude 10° 23:07:08 10° 99° (E) 5,761 10.4 -1.3°
Enters shadow 23:11:36 - 88° (E) 6,247 10.4 -2.2°
Sets 23:12:48 0° 85° (E) 6,402 - -2.5°
